Regional Weather Roundup
Issued by NWS

Home | Current Version | Previous Version | Graphics & Text | Print | Product List | Glossary On
Versions: 1 2 3 4 5 6 7 8 9 10 11 12 13 14 15 16 17 18 19 20 21 22 23 24 25 26 27 28 29 30 31 32 33 34 35 36 37 38 39 40 41 42 43 44 45 46 47 48 49 50
000
ASUS45 KBOU 282010
RWRCO

WEATHER ROUNDUP FOR COLORADO
NATIONAL WEATHER SERVICE PUEBLO CO
200 PM MDT TUE JUL 28 2015

NOTE: "FAIR" INDICATES FEW OR NO CLOUDS BELOW 12000 FEET WITH NO
SIGNIFICANT WEATHER AND/OR OBSTRUCTIONS TO VISIBILITY.

COZ001>005-013-030-031-282100-
...NORTHWEST COLORADO...

CITY           SKY/WX    TMP DP  RH WIND       PRES   REMARKS
CRAIG          SUNNY     78  33  19 W13       30.27F
HAYDEN         SUNNY     73  28  19 NW10G22   30.28S
MEEKER         SUNNY     79  31  17 NW6G17    30.26F
MOUNT WERNER   NOT AVBL
STEAMBOAT SPGS FAIR      71  35  26 S8        30.30S
WALDEN         FAIR      70  27  19 W15G24    30.35R
$$

COZ006>008-011-282100-
...WEST CENTRAL VALLEYS...

CITY           SKY/WX    TMP DP  RH WIND       PRES   REMARKS
GRAND JUNCTION SUNNY     85  31  14 W7        30.13F
MONTROSE       SUNNY     83  33  16 N9        30.20F
EAGLE          MOSUNNY   81  27  13 SW9G26    30.25S
RIFLE          SUNNY     86  32  14 N6        30.17F
DELTA          NOT AVBL
NUCLA          FAIR      84  28  13 N9        30.23S
$$

COZ017>023-064>068-282100-
...SOUTHWEST COLORADO...

CITY           SKY/WX    TMP DP  RH WIND       PRES   REMARKS
DURANGO        MOSUNNY   84  27  12 VRB7      30.24F
CORTEZ         SUNNY     88  30  12 SW7       30.18F
PAGOSA SPRINGS FAIR      79  26  14 SW8       30.33S
TELLURIDE      MOSUNNY   74  34  22 NW6       30.44S
WOLF CREEK PAS NOT AVBL
$$

COZ009-010-012-014-032>034-037-058>063-282100-
...CENTRAL COLORADO...

CITY           SKY/WX    TMP DP  RH WIND       PRES   REMARKS
ASPEN          SUNNY     75  37  25 NW12G17   30.31S
BUENA VISTA    FAIR      82  18   9 SW18G32   30.29S
COPPER MTN     SUNNY     61  23  23 W20G28    30.63S
BERTHOUD PASS  FAIR      52  43  71 NW17G29   30.67R
COTTONWOOD PAS MOSUNNY   75  10   8 SW6G22    30.45S
GUNNISON       SUNNY     81  28  15 W14G26    30.31F
KREMMLING      SUNNY     81  18   9 W15G21    30.28F
LEADVILLE      SUNNY     68  20  16 SW10G24   30.44S
MONARCH PASS   SUNNY     61  27  27 W39G48    30.72S
SALIDA         FAIR      86  26  11 W16G26    30.33S
NIWOT RIDGE    NOT AVBL
SUNLIGHT       SUNNY     64  37  36 CALM      30.57S
WILKERSON PASS SUNNY     72  18  13 SW12G20   30.58S
$$

COZ069>075-282100-
...SAN LUIS VALLEY/SANGRE DE CRISTO MOUNTAINS...

CITY           SKY/WX    TMP DP  RH WIND       PRES   REMARKS
ALAMOSA        MOSUNNY   81  33  17 S12G17    30.27S
LA VETA PASS   PTSUNNY   68  32  26 MISG      30.51S
SAGUACHE       MOSUNNY   75  39  27 S7        30.31S
$$

COZ035-036-038>040-282100-
...NORTHERN COLORADO FRONT RANGE...

CITY           SKY/WX    TMP DP  RH WIND       PRES   REMARKS
DENVER INTL AP MOSUNNY   83  39  21 SE20G29   30.15S
DMNS CITY PARK NOT AVBL
AURORA         MOSUNNY   81  44  26 E20G25    30.16S
FRONT RANGE AP MOSUNNY   81  37  21 E13G21    30.17S
ERIE MUNI ARPT FAIR      84  35  17 SE10G16   30.13S
BOULDER MUN AP FAIR      82  37  20 E8        30.14S
CENTENNIAL     MOSUNNY   85  41  21 E17G30    30.14S
BROOMFIELD     NOT AVBL
LOVELAND       SUNNY     82  43  24 E9G18     30.13S
LONGMONT       FAIR      86  37  18 E9G17     30.14S
$$

COZ041-046-047-076>085-087-088-282100-
...PIKES PEAK/PALMER DIVIDE AND SOUTHERN FOOTHILLS...

CITY           SKY/WX    TMP DP  RH WIND       PRES   REMARKS
COLO. SPRINGS  MOSUNNY   82  37  20 S21G26    30.21S
A. F. ACADEMY  SUNNY     81  39  22 SE24G37   30.20S
ELLICOTT       FAIR       1  32 100 S15G26    30.21S WCI -18
FALCON         FAIR      78  40  26 S16G22    30.26F
FORT CARSON    NOT AVBL
LIMON          SUNNY     79  41  25 SE10      30.19R
MONUMENT HILL  SUNNY     77  41  27 S17G26    30.25R
TRINIDAD       PTSUNNY   85  40  20 E8        30.17F
$$

COZ042>045-048>051-090-091-282100-
...NORTHEAST COLORADO...

CITY           SKY/WX    TMP DP  RH WIND       PRES   REMARKS
GREELEY ARPT   SUNNY     82  45  26 E7        30.13F
AKRON          SUNNY     81  32  17 N12G21    30.14S
BURLINGTON     SUNNY     80  39  23 NE15G25   30.12R
WRAY           FAIR      85  40  20 N10G22    30.09F
STERLING       NOT AVBL
HOLYOKE        FAIR      86  34  15 N15G22    30.10S
FORT MORGAN    FAIR      84  38  19 NE8       30.12F
$$

COZ086-089-092>099-282100-
...SOUTHEAST COLORADO...

CITY           SKY/WX    TMP DP  RH WIND       PRES   REMARKS
PUEBLO         SUNNY     89  34  14 SE17G24   30.10F
LA JUNTA       SUNNY     89  37  16 SE10G18   30.10S
LAMAR          SUNNY     88  41  19 NE13      30.06S
SPRINGFIELD      N/A     83  38  20 NE13G22   30.10F
$$



USA.gov is the U.S. government's official web portal to all federal, state and local government web resources and services.